This is the latest recevied weather packets stored in our database for station/object KD8BMB. If no packets are shown the sender has not sent any weather packets the latest 10 day(s).
| Time | Temp. | Humidity | Pressure | Rain* | Wind** | Luminosity | Snow |
|---|---|---|---|---|---|---|---|
| 1777410763 | 15° C | 73% | 1011.2 hPa | 0 mm | - | 356 W/m² | - |
| 1777410457 | 15° C | 74% | 1011.5 hPa | 0 mm | - | 196 W/m² | - |
| 1777410156 | 14.44° C | 74% | 1011.1 hPa | 0 mm | - | 178 W/m² | - |
| 1777409851 | 14.44° C | 74% | 1011.2 hPa | 0 mm | - | 240 W/m² | - |
| 1777409547 | 14.44° C | 75% | 1011.6 hPa | 0 mm | - | 325 W/m² | - |
| 1777409243 | 14.44° C | 76% | 1011.3 hPa | 0 mm | - | 530 W/m² | - |
| 1777408939 | 13.89° C | 79% | 1011.4 hPa | 0 mm | - | 218 W/m² | - |
| 1777408636 | 13.89° C | 79% | 1011.3 hPa | 0 mm | - | 259 W/m² | - |
| 1777408332 | 13.89° C | 79% | 1011.1 hPa | 0 mm | - | 247 W/m² | - |
| 1777408031 | 13.89° C | 78% | 1011.3 hPa | 0 mm | - | 161 W/m² | - |
| 1777407727 | 13.89° C | 78% | 1011.3 hPa | 0 mm | - | 185 W/m² | - |
| 1777407423 | 13.89° C | 79% | 1011.2 hPa | 0 mm | - | 232 W/m² | - |
| 1777407118 | 13.89° C | 80% | 1010.9 hPa | 0 mm | - | 160 W/m² | - |
| 1777406814 | 13.89° C | 79% | 1011.3 hPa | 0 mm | - | 138 W/m² | - |
| 1777406509 | 13.89° C | 79% | 1011.2 hPa | 0 mm | - | 170 W/m² | - |
| 1777406204 | 13.89° C | 77% | 1011 hPa | 0 mm | - | 232 W/m² | - |
| 1777405904 | 13.89° C | 77% | 1010.9 hPa | 0 mm | - | 290 W/m² | - |
| 1777405600 | 13.89° C | 79% | 1010.9 hPa | 0 mm | - | 263 W/m² | - |
| 1777405298 | 13.89° C | 79% | 1010.8 hPa | 0 mm | - | 256 W/m² | - |
| 1777404997 | 13.89° C | 79% | 1011.3 hPa | 0 mm | - | 224 W/m² | - |
| 1777404692 | 13.89° C | 78% | 1011.1 hPa | 0 mm | - | 213 W/m² | - |
| 1777404388 | 13.89° C | 79% | 1011.2 hPa | 0 mm | - | 256 W/m² | - |
| 1777404085 | 13.89° C | 79% | 1011.1 hPa | 0 mm | - | 322 W/m² | - |
| 1777403781 | 13.33° C | 81% | 1011.2 hPa | 0 mm | - | 262 W/m² | - |
| 1777403479 | 13.33° C | 82% | 1011.1 hPa | 0 mm | - | 151 W/m² | - |
* Rain latest hour (hover to see other rain measurements)
** Current wind speed in m/s (hover to see current wind gust speed)